Flag for U.S.A. Weather past 2 weeks in Passaic, New Jersey, U.S.A.

Now
51 °F

Sunny.


Feels Like: 48 °F
Forecast: 35 / 60 °F
Wind: 9 mph from Northwest

Location: Teterboro Airport

Current Time: Apr 25, 2015 at 12:18:30 PM

Latest Report: Apr 25, 2015 at 11:51 AM


Visibility: 10 mi

Pressure: 29.84 "Hg

Humidity: 36%

Dew point: 25 °F

Location of PassaicLocation

Historic Weather in Passaic — Graph

°F

Passaic temperature yesterday

Maximum temperature yesterday: 50 °F (at 2:51 PM)
Minimum temperature yesterday: 38 °F (at 4:51 AM)
Average temperature yesterday: 42 °F

Past Weeks' High & Low Weather Summary

 TemperatureHumidityPressure
High80 °F (Apr 18, 4:51 PM)97% (Apr 20, 8:51 PM)30.48 "Hg (Apr 20, 8:51 PM)
Low35 °F (Apr 12, 5:51 AM)12% (Apr 15, 3:51 PM)29.50 "Hg (Apr 22, 2:51 PM)
Average55 °F51%29.99 "Hg
* Reported Apr 10 10:51 AM — Apr 25 10:51 AM, Passaic, Weather by CustomWeather, © 2015

Note: Actual official high and low records may vary slightly from our data, if they occured in-between our weather recording intervals... More about our weather records

Advertising

Passaic weather history for previous 24 hours

 ConditionsComfort  
Time TempWeatherWind HumidityBarometerVisibility
10:51 AM
Sat, Apr 25
48 °FSunny.13 mph39%29.86 "Hg10 mi
9:51 AM46 °FSunny.14 mph40%29.88 "Hg10 mi
8:51 AM43 °FSunny.12 mph45%29.89 "Hg10 mi
7:51 AM40 °FSunny.10 mph49%29.92 "Hg10 mi
6:51 AM37 °FClear.6 mph57%29.91 "Hg10 mi
5:51 AM36 °FClear.5 mph57%29.92 "Hg10 mi
4:51 AM36 °FClear.5 mph54%29.91 "Hg10 mi
3:51 AM36 °FClear.6 mph54%29.90 "Hg10 mi
2:51 AM36 °FClear.3 mph54%29.90 "Hg10 mi
1:51 AM37 °FClear.3 mph52%29.91 "Hg10 mi
12:51 AM38 °FClear.7 mph48%29.92 "Hg10 mi
11:51 PM
Fri, Apr 24
38 °FClear.6 mph51%29.93 "Hg10 mi
10:51 PM39 °FClear.9 mph46%29.93 "Hg10 mi
9:51 PM40 °FClear.15 mph45%29.92 "Hg10 mi
8:51 PM42 °FClear.14 mph39%29.92 "Hg10 mi
7:51 PM43 °FSunny.16 mph38%29.90 "Hg10 mi
6:51 PM45 °FSunny.18 mph35%29.87 "Hg10 mi
5:51 PM48 °FSunny.20 mph32%29.86 "Hg10 mi
4:51 PM49 °FSunny.20 mph29%29.84 "Hg10 mi
3:51 PM49 °FScattered clouds.17 mph31%29.83 "Hg10 mi
2:51 PM50 °FScattered clouds.23 mph33%29.82 "Hg10 mi
1:51 PM48 °FPartly sunny.20 mph34%29.83 "Hg10 mi
12:51 PM45 °FOvercast.14 mph38%29.85 "Hg10 mi
Weather by CustomWeather, © 2015

See weather overviewHow to use our weather pages